| time (UTC) | temp F | wind direction | speed MPH | gust MPH | rain 1hr in | rain 24hr in | rain mn in | humidity % | barometer mb |
| 20260507160703 | 52 | 274 | 3.0 | 7.0 | 0.00 | 0.11 | 0.06 | 90 | 1011.2 |
| 20260507155938 | 52 | 265 | 4.0 | 8.0 | 0.00 | 0.11 | 0.06 | 89 | 1011.2 |
| 20260507155438 | 52 | 268 | 4.0 | 9.0 | 0.00 | 0.11 | 0.06 | 89 | 1011.2 |
| 20260507154938 | 52 | 250 | 5.0 | 10.0 | 0.00 | 0.11 | 0.06 | 89 | 1011.1 |
| 20260507154438 | 52 | 239 | 5.0 | 10.0 | 0.00 | 0.11 | 0.06 | 89 | 1011.0 |
| 20260507153938 | 52 | 248 | 5.0 | 12.0 | 0.00 | 0.11 | 0.06 | 89 | 1010.9 |
| 20260507153437 | 53 | 282 | 5.0 | 12.0 | 0.01 | 0.11 | 0.06 | 89 | 1010.8 |
| 20260507152937 | 53 | 247 | 5.0 | 10.0 | 0.01 | 0.11 | 0.06 | 88 | 1010.8 |
| 20260507152437 | 53 | 250 | 4.0 | 9.0 | 0.01 | 0.11 | 0.06 | 88 | 1010.8 |
| 20260507151937 | 53 | 260 | 4.0 | 8.0 | 0.01 | 0.11 | 0.06 | 88 | 1010.8 |
| 20260507151435 | 53 | 257 | 5.0 | 11.0 | 0.01 | 0.11 | 0.06 | 88 | 1010.8 |
| 20260507150936 | 53 | 250 | 5.0 | 11.0 | 0.01 | 0.11 | 0.06 | 88 | 1010.8 |
| 20260507150436 | 53 | 263 | 5.0 | 10.0 | 0.02 | 0.11 | 0.06 | 88 | 1010.7 |
| 20260507145936 | 53 | 242 | 5.0 | 11.0 | 0.02 | 0.11 | 0.06 | 88 | 1010.7 |
| 20260507145436 | 53 | 260 | 5.0 | 11.0 | 0.02 | 0.11 | 0.06 | 88 | 1010.5 |
| 20260507145201 | 53 | 262 | 4.0 | 11.0 | 0.02 | 0.11 | 0.06 | 88 | 1010.7 |
| 20260507144437 | 53 | 275 | 4.0 | 8.0 | 0.02 | 0.11 | 0.06 | 87 | 1010.7 |
| 20260507143936 | 53 | 286 | 5.0 | 11.0 | 0.02 | 0.11 | 0.06 | 87 | 1010.7 |
| 20260507143436 | 54 | 269 | 5.0 | 11.0 | 0.02 | 0.10 | 0.06 | 86 | 1010.5 |
| 20260507142932 | 54 | 261 | 5.0 | 9.0 | 0.02 | 0.10 | 0.06 | 85 | 1010.7 |
| 20260507142431 | 54 | 252 | 5.0 | 9.0 | 0.02 | 0.10 | 0.06 | 85 | 1010.5 |
| 20260507141431 | 55 | 261 | 6.0 | 18.0 | 0.02 | 0.10 | 0.06 | 81 | 1010.5 |
| 20260507140931 | 56 | 267 | 7.0 | 18.0 | 0.02 | 0.10 | 0.06 | 77 | 1010.5 |
| 20260507135929 | 60 | 321 | 4.0 | 14.0 | 0.00 | 0.09 | 0.04 | 70 | 1010.4 |
| 20260507135430 | 60 | 254 | 3.0 | 11.0 | 0.00 | 0.09 | 0.04 | 68 | 1010.2 |
| 20260507134929 | 61 | 190 | 4.0 | 11.0 | 0.00 | 0.09 | 0.04 | 67 | 1010.1 |
| 20260507134429 | 61 | 279 | 4.0 | 10.0 | 0.00 | 0.09 | 0.04 | 65 | 1010.0 |
| 20260507133928 | 62 | 287 | 4.0 | 13.0 | 0.00 | 0.09 | 0.04 | 64 | 1010.0 |
| 20260507133430 | 62 | 281 | 4.0 | 13.0 | 0.00 | 0.09 | 0.04 | 66 | 1010.0 |
| 20260507132929 | 61 | 265 | 4.0 | 12.0 | 0.00 | 0.09 | 0.04 | 67 | 1009.9 |
| 20260507132430 | 61 | 186 | 4.0 | 15.0 | 0.00 | 0.09 | 0.04 | 66 | 1009.9 |
| 20260507131929 | 61 | 165 | 4.0 | 15.0 | 0.00 | 0.09 | 0.04 | 68 | 1009.8 |
| 20260507131653 | 61 | 171 | 5.0 | 14.0 | 0.00 | 0.09 | 0.04 | 68 | 1009.8 |
| 20260507130930 | 61 | 182 | 7.0 | 20.0 | 0.00 | 0.09 | 0.04 | 67 | 1009.8 |
| 20260507130428 | 61 | 255 | 7.0 | 20.0 | 0.00 | 0.09 | 0.04 | 65 | 1009.8 |
| 20260507125930 | 61 | 270 | 6.0 | 13.0 | 0.00 | 0.09 | 0.04 | 63 | 1009.7 |
| 20260507125428 | 62 | 207 | 6.0 | 13.0 | 0.00 | 0.09 | 0.04 | 64 | 1009.7 |
| 20260507124931 | 62 | 261 | 7.0 | 14.0 | 0.00 | 0.09 | 0.04 | 64 | 1009.7 |
| 20260507124428 | 62 | 196 | 6.0 | 15.0 | 0.00 | 0.09 | 0.04 | 63 | 1009.7 |
| 20260507123929 | 62 | 267 | 5.0 | 15.0 | 0.00 | 0.09 | 0.04 | 63 | 1009.7 |
| 20260507123430 | 62 | 162 | 4.0 | 10.0 | 0.00 | 0.09 | 0.04 | 65 | 1009.6 |
| 20260507122929 | 62 | 267 | 5.0 | 14.0 | 0.00 | 0.09 | 0.04 | 65 | 1009.6 |
| 20260507122429 | 62 | 185 | 5.0 | 14.0 | 0.00 | 0.09 | 0.04 | 66 | 1009.6 |
| 20260507121930 | 61 | 273 | 5.0 | 12.0 | 0.00 | 0.09 | 0.04 | 65 | 1009.5 |
| 20260507121429 | 61 | 259 | 4.0 | 13.0 | 0.00 | 0.09 | 0.04 | 65 | 1009.5 |
| 20260507120929 | 61 | 216 | 4.0 | 13.0 | 0.00 | 0.09 | 0.04 | 64 | 1009.5 |
| 20260507120430 | 61 | 127 | 3.0 | 14.0 | 0.00 | 0.09 | 0.04 | 64 | 1009.5 |
| 20260507120155 | 61 | 163 | 2.0 | 14.0 | 0.00 | 0.09 | 0.04 | 66 | 1009.4 |
| 20260507115429 | 61 | 244 | 2.0 | 9.0 | 0.00 | 0.09 | 0.04 | 65 | 1009.4 |
| 20260507114930 | 61 | 292 | 3.0 | 9.0 | 0.00 | 0.09 | 0.04 | 65 | 1009.4 |
| 20260507114430 | 61 | 304 | 4.0 | 10.0 | 0.00 | 0.09 | 0.04 | 67 | 1009.3 |
| 20260507113929 | 61 | 193 | 4.0 | 10.0 | 0.00 | 0.09 | 0.04 | 66 | 1009.4 |
| 20260507113429 | 62 | 288 | 4.0 | 11.0 | 0.00 | 0.09 | 0.04 | 66 | 1009.4 |
| 20260507112928 | 62 | 183 | 4.0 | 11.0 | 0.00 | 0.09 | 0.04 | 64 | 1009.4 |
| 20260507112654 | 62 | 143 | 4.0 | 12.0 | 0.00 | 0.09 | 0.04 | 65 | 1009.3 |
| 20260507111930 | 62 | 295 | 3.0 | 12.0 | 0.00 | 0.09 | 0.04 | 67 | 1009.3 |
| 20260507111428 | 62 | 274 | 3.0 | 12.0 | 0.00 | 0.09 | 0.04 | 68 | 1009.3 |
| 20260507110930 | 61 | 160 | 3.0 | 9.0 | 0.00 | 0.09 | 0.04 | 68 | 1009.3 |
| 20260507110429 | 60 | 101 | 3.0 | 8.0 | 0.00 | 0.09 | 0.04 | 70 | 1009.3 |
| 20260507105929 | 60 | 171 | 3.0 | 10.0 | 0.00 | 0.09 | 0.04 | 68 | 1009.3 |
| 20260507105429 | 60 | 306 | 4.0 | 12.0 | 0.00 | 0.09 | 0.04 | 68 | 1009.2 |
| 20260507104923 | 60 | 144 | 3.0 | 12.0 | 0.00 | 0.09 | 0.04 | 67 | 1009.2 |
| 20260507103912 | 61 | 257 | 4.0 | 13.0 | 0.00 | 0.09 | 0.04 | 64 | 1009.2 |
| 20260507103407 | 61 | 202 | 5.0 | 15.0 | 0.00 | 0.09 | 0.04 | 67 | 1009.2 |
| 20260507102908 | 61 | 215 | 6.0 | 19.0 | 0.00 | 0.09 | 0.04 | 67 | 1009.2 |
| 20260507102407 | 61 | 281 | 5.0 | 19.0 | 0.00 | 0.09 | 0.04 | 66 | 1009.1 |
| 20260507101907 | 62 | 231 | 4.0 | 15.0 | 0.00 | 0.09 | 0.04 | 70 | 1009.1 |
| 20260507101628 | 61 | 147 | 4.0 | 11.0 | 0.00 | 0.09 | 0.04 | 68 | 1009.0 |
| 20260507100907 | 61 | 205 | 5.0 | 17.0 | 0.00 | 0.09 | 0.04 | 67 | 1009.0 |
| 20260507100407 | 60 | 267 | 5.0 | 17.0 | 0.00 | 0.09 | 0.04 | 68 | 1009.0 |
| 20260507095907 | 60 | 0 | 5.0 | 11.0 | 0.00 | 0.09 | 0.04 | 70 | 1009.0 |
| 20260507095634 | 60 | 275 | 5.0 | 18.0 | 0.00 | 0.09 | 0.04 | 70 | 1009.0 |
| 20260507094905 | 60 | 271 | 4.0 | 18.0 | 0.00 | 0.09 | 0.04 | 70 | 1009.0 |
| 20260507094628 | 60 | 273 | 4.0 | 10.0 | 0.00 | 0.09 | 0.04 | 71 | 1008.8 |
| 20260507093905 | 60 | 171 | 5.0 | 15.0 | 0.00 | 0.09 | 0.04 | 72 | 1008.8 |
| 20260507093405 | 60 | 287 | 4.0 | 15.0 | 0.00 | 0.09 | 0.04 | 72 | 1008.8 |
| 20260507092905 | 59 | 167 | 3.0 | 12.0 | 0.00 | 0.09 | 0.04 | 73 | 1008.7 |
| 20260507092405 | 58 | 126 | 3.0 | 12.0 | 0.00 | 0.09 | 0.04 | 76 | 1008.6 |
| 20260507091905 | 58 | 233 | 2.0 | 9.0 | 0.00 | 0.09 | 0.04 | 79 | 1008.7 |
| 20260507091402 | 57 | 314 | 3.0 | 9.0 | 0.00 | 0.09 | 0.04 | 79 | 1008.6 |
| 20260507090901 | 56 | 298 | 4.0 | 14.0 | 0.00 | 0.09 | 0.04 | 81 | 1008.6 |
| 20260507090617 | 56 | 277 | 5.0 | 14.0 | 0.00 | 0.09 | 0.04 | 81 | 1008.5 |
| 20260507090128 | 56 | 251 | 3.0 | 13.0 | 0.00 | 0.09 | 0.04 | 84 | 1008.5 |
| 20260507085357 | 55 | 226 | 2.0 | 8.0 | 0.00 | 0.09 | 0.04 | 86 | 1008.5 |
| 20260507084857 | 55 | 248 | 3.0 | 8.0 | 0.00 | 0.09 | 0.04 | 87 | 1008.5 |
| 20260507084357 | 55 | 273 | 4.0 | 9.0 | 0.00 | 0.09 | 0.04 | 87 | 1008.5 |
| 20260507083857 | 55 | 262 | 5.0 | 9.0 | 0.00 | 0.09 | 0.04 | 86 | 1008.6 |
| 20260507083356 | 56 | 246 | 5.0 | 9.0 | 0.00 | 0.09 | 0.04 | 84 | 1008.5 |
| 20260507082857 | 56 | 269 | 5.0 | 9.0 | 0.00 | 0.09 | 0.04 | 83 | 1008.4 |
| 20260507082357 | 57 | 292 | 5.0 | 12.0 | 0.00 | 0.09 | 0.04 | 80 | 1008.3 |
| 20260507081857 | 58 | 311 | 5.0 | 12.0 | 0.00 | 0.09 | 0.04 | 78 | 1008.2 |
| 20260507081357 | 58 | 204 | 6.0 | 12.0 | 0.00 | 0.09 | 0.04 | 76 | 1008.1 |
| 20260507080857 | 58 | 261 | 6.0 | 12.0 | 0.00 | 0.09 | 0.04 | 75 | 1008.0 |
| 20260507080357 | 59 | 188 | 4.0 | 10.0 | 0.00 | 0.09 | 0.04 | 76 | 1008.0 |
| 20260507075856 | 59 | 202 | 3.0 | 9.0 | 0.00 | 0.09 | 0.04 | 78 | 1007.9 |
| 20260507075357 | 59 | 267 | 4.0 | 11.0 | 0.00 | 0.09 | 0.04 | 77 | 1007.9 |
| 20260507074851 | 59 | 266 | 4.0 | 11.0 | 0.00 | 0.09 | 0.04 | 75 | 1007.9 |
| 20260507074349 | 59 | 261 | 3.0 | 10.0 | 0.00 | 0.09 | 0.04 | 78 | 1007.8 |
| 20260507073848 | 59 | 257 | 3.0 | 9.0 | 0.00 | 0.09 | 0.04 | 80 | 1007.8 |
| 20260507073612 | 58 | 237 | 3.0 | 12.0 | 0.00 | 0.09 | 0.04 | 80 | 1007.8 |
| 20260507072848 | 58 | 182 | 2.0 | 12.0 | 0.00 | 0.09 | 0.04 | 80 | 1007.7 |
| 20260507072349 | 57 | 269 | 3.0 | 7.0 | 0.00 | 0.09 | 0.04 | 81 | 1007.6 |
| 20260507071849 | 57 | 220 | 4.0 | 12.0 | 0.00 | 0.09 | 0.04 | 81 | 1007.6 |
| 20260507071349 | 57 | 169 | 5.0 | 12.0 | 0.00 | 0.09 | 0.04 | 80 | 1007.6 |
| 20260507070849 | 57 | 260 | 5.0 | 11.0 | 0.00 | 0.09 | 0.04 | 80 | 1007.4 |
| 20260507070349 | 57 | 184 | 5.0 | 13.0 | 0.00 | 0.09 | 0.04 | 80 | 1007.4 |
| 20260507065848 | 57 | 213 | 5.0 | 14.0 | 0.00 | 0.09 | 0.04 | 82 | 1007.6 |
| 20260507065348 | 56 | 248 | 6.0 | 14.0 | 0.00 | 0.09 | 0.04 | 83 | 1007.4 |
| 20260507065112 | 56 | 232 | 6.0 | 13.0 | 0.00 | 0.09 | 0.04 | 83 | 1007.6 |
| 20260507064349 | 56 | 273 | 3.0 | 12.0 | 0.00 | 0.09 | 0.04 | 84 | 1007.4 |
| 20260507063848 | 56 | 274 | 3.0 | 10.0 | 0.00 | 0.09 | 0.04 | 85 | 1007.4 |
| 20260507063349 | 56 | 257 | 5.0 | 10.0 | 0.00 | 0.09 | 0.04 | 84 | 1007.3 |
| 20260507063105 | 55 | 262 | 4.0 | 10.0 | 0.00 | 0.09 | 0.04 | 85 | 1007.3 |
| 20260507062348 | 55 | 263 | 5.0 | 12.0 | 0.00 | 0.09 | 0.04 | 85 | 1007.1 |
| 20260507061849 | 55 | 277 | 6.0 | 17.0 | 0.00 | 0.09 | 0.04 | 85 | 1007.1 |
| 20260507061349 | 55 | 209 | 6.0 | 17.0 | 0.00 | 0.09 | 0.04 | 86 | 1007.1 |
| 20260507060849 | 55 | 237 | 5.0 | 11.0 | 0.00 | 0.09 | 0.04 | 87 | 1007.0 |
| 20260507060349 | 55 | 236 | 4.0 | 10.0 | 0.00 | 0.09 | 0.04 | 88 | 1007.0 |
| 20260507060118 | 55 | 262 | 4.0 | 10.0 | 0.00 | 0.09 | 0.04 | 88 | 1006.9 |
| 20260507055348 | 54 | 288 | 3.0 | 10.0 | 0.00 | 0.09 | 0.04 | 88 | 1006.8 |
| 20260507054849 | 54 | 279 | 3.0 | 8.0 | 0.00 | 0.09 | 0.04 | 88 | 1006.8 |
| 20260507054348 | 54 | 275 | 3.0 | 8.0 | 0.00 | 0.09 | 0.04 | 89 | 1006.8 |
| 20260507054111 | 54 | 244 | 2.0 | 7.0 | 0.00 | 0.09 | 0.04 | 89 | 1006.7 |
| 20260507053618 | 54 | 218 | 2.0 | 5.0 | 0.00 | 0.09 | 0.04 | 89 | 1006.6 |
| 20260507052849 | 54 | 260 | 3.0 | 11.0 | 0.00 | 0.09 | 0.04 | 90 | 1006.6 |
| 20260507052347 | 53 | 254 | 5.0 | 11.0 | 0.00 | 0.09 | 0.04 | 90 | 1006.5 |
| 20260507051845 | 53 | 259 | 4.0 | 9.0 | 0.00 | 0.09 | 0.04 | 90 | 1006.5 |
| 20260507051339 | 53 | 243 | 3.0 | 10.0 | 0.00 | 0.09 | 0.04 | 91 | 1006.5 |
| 20260507050834 | 53 | 262 | 3.0 | 10.0 | 0.00 | 0.09 | 0.04 | 91 | 1006.5 |
| 20260507050554 | 53 | 271 | 3.0 | 8.0 | 0.00 | 0.09 | 0.04 | 91 | 1006.5 |
| 20260507045834 | 53 | 271 | 3.0 | 8.0 | 0.00 | 0.09 | 0.04 | 91 | 1006.4 |
| 20260507045334 | 53 | 247 | 4.0 | 8.0 | 0.00 | 0.09 | 0.04 | 91 | 1006.3 |
| 20260507044833 | 52 | 295 | 3.0 | 8.0 | 0.00 | 0.09 | 0.04 | 91 | 1006.2 |
| 20260507044332 | 52 | 248 | 2.0 | 8.0 | 0.00 | 0.09 | 0.04 | 91 | 1006.2 |
| 20260507043832 | 52 | 282 | 2.0 | 6.0 | 0.00 | 0.09 | 0.04 | 91 | 1006.2 |
| 20260507043329 | 52 | 274 | 2.0 | 6.0 | 0.00 | 0.09 | 0.04 | 91 | 1006.2 |
| 20260507042830 | 52 | 281 | 1.0 | 4.0 | 0.01 | 0.09 | 0.04 | 91 | 1006.1 |
| 20260507042331 | 52 | 278 | 2.0 | 6.0 | 0.01 | 0.09 | 0.04 | 91 | 1006.1 |
| 20260507042050 | 52 | 271 | 2.0 | 6.0 | 0.01 | 0.09 | 0.04 | 91 | 1006.0 |
| 20260507041330 | 52 | 296 | 2.0 | 6.0 | 0.01 | 0.09 | 0.04 | 91 | 1006.0 |
| 20260507040829 | 52 | 298 | 2.0 | 6.0 | 0.01 | 0.09 | 0.04 | 91 | 1006.0 |
| 20260507040330 | 52 | 248 | 2.0 | 6.0 | 0.01 | 0.09 | 0.04 | 91 | 1006.0 |
| 20260507040114 | 52 | 268 | 3.0 | 7.0 | 0.01 | 0.09 | 0.04 | 91 | 1005.9 |
| 20260507035330 | 52 | 265 | 3.0 | 8.0 | 0.01 | 0.09 | 0.04 | 91 | 1005.9 |
| 20260507034828 | 52 | 271 | 4.0 | 8.0 | 0.01 | 0.09 | 0.04 | 91 | 1005.8 |
| 20260507034328 | 52 | 251 | 5.0 | 12.0 | 0.01 | 0.09 | 0.04 | 92 | 1005.8 |
| 20260507033821 | 52 | 280 | 6.0 | 12.0 | 0.01 | 0.09 | 0.04 | 92 | 1005.8 |
| 20260507033315 | 52 | 276 | 5.0 | 10.0 | 0.01 | 0.09 | 0.04 | 92 | 1005.8 |
| 20260507032810 | 52 | 285 | 4.0 | 9.0 | 0.00 | 0.09 | 0.03 | 92 | 1005.8 |
| 20260507032306 | 52 | 274 | 4.0 | 9.0 | 0.00 | 0.09 | 0.03 | 92 | 1005.8 |
| 20260507031802 | 52 | 265 | 3.0 | 8.0 | 0.00 | 0.09 | 0.03 | 92 | 1005.8 |
| 20260507031302 | 52 | 180 | 3.0 | 8.0 | 0.00 | 0.09 | 0.03 | 92 | 1005.8 |
| 20260507030802 | 52 | 296 | 2.0 | 7.0 | 0.00 | 0.09 | 0.03 | 92 | 1005.8 |
| 20260507030307 | 52 | 251 | 1.0 | 7.0 | 0.00 | 0.09 | 0.03 | 92 | 1005.8 |
| 20260507025801 | 52 | 294 | 1.0 | 4.0 | 0.00 | 0.09 | 0.03 | 92 | 1005.7 |
| 20260507025525 | 52 | 275 | 2.0 | 7.0 | 0.00 | 0.09 | 0.03 | 92 | 1005.7 |
| 20260507024802 | 52 | 290 | 2.0 | 8.0 | 0.00 | 0.09 | 0.03 | 92 | 1005.7 |
| 20260507023800 | 52 | 276 | 3.0 | 7.0 | 0.00 | 0.09 | 0.03 | 92 | 1005.6 |
| 20260507023025 | 52 | 277 | 3.0 | 8.0 | 0.00 | 0.09 | 0.03 | 92 | 1005.6 |
| 20260507022306 | 52 | 271 | 1.0 | 4.0 | 0.00 | 0.09 | 0.03 | 91 | 1005.6 |
| 20260507021301 | 52 | 265 | 1.0 | 6.0 | 0.00 | 0.09 | 0.03 | 91 | 1005.5 |
| 20260507021025 | 52 | 266 | 1.0 | 6.0 | 0.00 | 0.09 | 0.03 | 91 | 1005.5 |
| 20260507020301 | 52 | 219 | 1.0 | 3.0 | 0.00 | 0.09 | 0.03 | 91 | 1005.5 |
| 20260507015801 | 52 | 274 | 0.0 | 2.0 | 0.00 | 0.09 | 0.03 | 91 | 1005.5 |
| 20260507015257 | 52 | 259 | 0.0 | 3.0 | 0.00 | 0.09 | 0.03 | 91 | 1005.4 |
| 20260507014752 | 52 | 259 | 0.0 | 3.0 | 0.00 | 0.09 | 0.03 | 91 | 1005.3 |
| 20260507014246 | 53 | 259 | 0.0 | 2.0 | 0.00 | 0.09 | 0.03 | 91 | 1005.3 |
| 20260507013742 | 53 | 259 | 0.0 | 2.0 | 0.00 | 0.09 | 0.03 | 91 | 1005.3 |
| 20260507013243 | 53 | 259 | 0.0 | 2.0 | 0.00 | 0.09 | 0.03 | 90 | 1005.3 |
| 20260507012742 | 53 | 260 | 0.0 | 1.0 | 0.00 | 0.09 | 0.03 | 90 | 1005.2 |
| 20260507012242 | 53 | 260 | 0.0 | 2.0 | 0.00 | 0.09 | 0.03 | 91 | 1005.3 |
| 20260507011742 | 53 | 259 | 2.0 | 6.0 | 0.00 | 0.09 | 0.03 | 91 | 1005.2 |
| 20260507011243 | 53 | 259 | 3.0 | 7.0 | 0.00 | 0.09 | 0.03 | 91 | 1005.2 |
| 20260507010742 | 53 | 263 | 4.0 | 8.0 | 0.00 | 0.09 | 0.03 | 91 | 1005.2 |
| 20260507010242 | 53 | 272 | 4.0 | 8.0 | 0.00 | 0.09 | 0.03 | 91 | 1005.2 |
| 20260507010010 | 53 | 258 | 5.0 | 8.0 | 0.00 | 0.09 | 0.03 | 91 | 1005.2 |
| 20260507005242 | 53 | 240 | 5.0 | 9.0 | 0.00 | 0.09 | 0.03 | 91 | 1005.2 |
| 20260507004741 | 53 | 261 | 4.0 | 9.0 | 0.00 | 0.09 | 0.03 | 91 | 1005.1 |
| 20260507004240 | 53 | 263 | 5.0 | 10.0 | 0.00 | 0.09 | 0.03 | 91 | 1005.0 |
| 20260507003740 | 53 | 254 | 5.0 | 10.0 | 0.00 | 0.09 | 0.03 | 91 | 1005.0 |
| 20260507003251 | 53 | 271 | 4.0 | 10.0 | 0.00 | 0.09 | 0.03 | 92 | 1004.9 |
| 20260507002740 | 54 | 259 | 4.0 | 8.0 | 0.00 | 0.09 | 0.03 | 91 | 1004.9 |
| 20260507002240 | 54 | 247 | 4.0 | 8.0 | 0.00 | 0.09 | 0.03 | 91 | 1004.8 |
| 20260507002002 | 54 | 249 | 3.0 | 7.0 | 0.00 | 0.09 | 0.03 | 91 | 1004.8 |
| 20260507001235 | 54 | 268 | 2.0 | 6.0 | 0.00 | 0.09 | 0.03 | 91 | 1004.7 |
| 20260507000735 | 54 | 257 | 2.0 | 7.0 | 0.00 | 0.09 | 0.03 | 91 | 1004.6 |
| 20260507000241 | 54 | 253 | 3.0 | 7.0 | 0.00 | 0.09 | 0.03 | 91 | 1004.7 |
| 20260506235731 | 54 | 295 | 3.0 | 7.0 | 0.00 | 0.09 | 0.03 | 91 | 1004.7 |
| 20260506235458 | 54 | 247 | 2.0 | 7.0 | 0.00 | 0.09 | 0.03 | 91 | 1004.7 |
| 20260506234731 | 54 | 263 | 3.0 | 8.0 | 0.00 | 0.09 | 0.03 | 91 | 1004.6 |
| 20260506234230 | 54 | 248 | 3.0 | 8.0 | 0.00 | 0.09 | 0.03 | 91 | 1004.7 |
| 20260506233953 | 54 | 259 | 2.0 | 6.0 | 0.00 | 0.09 | 0.03 | 91 | 1004.7 |
| 20260506233231 | 54 | 260 | 2.0 | 7.0 | 0.01 | 0.09 | 0.03 | 91 | 1004.7 |
| 20260506232729 | 54 | 247 | 2.0 | 7.0 | 0.01 | 0.09 | 0.03 | 91 | 1004.7 |
| 20260506232230 | 54 | 260 | 2.0 | 6.0 | 0.01 | 0.09 | 0.03 | 91 | 1004.7 |
| 20260506231730 | 55 | 238 | 1.0 | 6.0 | 0.02 | 0.09 | 0.03 | 91 | 1004.6 |
| 20260506231230 | 55 | 265 | 0.0 | 1.0 | 0.02 | 0.09 | 0.03 | 91 | 1004.6 |
| 20260506230729 | 55 | 266 | 1.0 | 4.0 | 0.02 | 0.09 | 0.03 | 91 | 1004.6 |
| 20260506230446 | 55 | 265 | 2.0 | 7.0 | 0.03 | 0.09 | 0.03 | 91 | 1004.7 |
| 20260506225949 | 55 | 266 | 3.0 | 8.0 | 0.04 | 0.09 | 0.03 | 91 | 1004.6 |
| 20260506225449 | 55 | 249 | 2.0 | 8.0 | 0.04 | 0.09 | 0.03 | 92 | 1004.6 |
| 20260506224729 | 55 | 264 | 0.0 | 2.0 | 0.04 | 0.09 | 0.03 | 92 | 1004.6 |
| 20260506224230 | 55 | 263 | 0.0 | 2.0 | 0.04 | 0.09 | 0.03 | 92 | 1004.6 |
| 20260506223729 | 55 | 263 | 0.0 | 2.0 | 0.05 | 0.09 | 0.03 | 92 | 1004.6 |
| 20260506223230 | 55 | 263 | 0.0 | 2.0 | 0.04 | 0.08 | 0.02 | 92 | 1004.5 |
| 20260506222729 | 55 | 263 | 1.0 | 7.0 | 0.05 | 0.08 | 0.02 | 92 | 1004.4 |
| 20260506222229 | 55 | 263 | 2.0 | 7.0 | 0.05 | 0.08 | 0.02 | 92 | 1004.4 |
| 20260506221957 | 55 | 263 | 1.0 | 4.0 | 0.04 | 0.07 | 0.02 | 92 | 1004.4 |
| 20260506221229 | 55 | 262 | 2.0 | 5.0 | 0.04 | 0.07 | 0.01 | 92 | 1004.4 |
| 20260506220953 | 55 | 261 | 2.0 | 8.0 | 0.03 | 0.06 | 0.01 | 92 | 1004.4 |
| 20260506220229 | 55 | 238 | 3.0 | 9.0 | 0.02 | 0.06 | 0.00 | 92 | 1004.4 |
| 20260506215729 | 55 | 259 | 5.0 | 9.0 | 0.02 | 0.05 | 0.05 | 92 | 1004.6 |
| 20260506215229 | 55 | 250 | 4.0 | 10.0 | 0.02 | 0.05 | 0.05 | 92 | 1004.6 |
| 20260506214729 | 56 | 240 | 2.0 | 10.0 | 0.02 | 0.05 | 0.05 | 93 | 1004.6 |
| 20260506214229 | 56 | 254 | 2.0 | 10.0 | 0.02 | 0.06 | 0.05 | 93 | 1004.6 |
| 20260506213727 | 56 | 256 | 2.0 | 10.0 | 0.01 | 0.06 | 0.04 | 93 | 1004.6 |
| 20260506213227 | 56 | 281 | 1.0 | 4.0 | 0.01 | 0.07 | 0.04 | 93 | 1004.5 |
| 20260506212724 | 56 | 269 | 1.0 | 7.0 | 0.00 | 0.07 | 0.03 | 93 | 1004.5 |
| 20260506212225 | 56 | 273 | 1.0 | 7.0 | 0.00 | 0.09 | 0.03 | 93 | 1004.6 |
| 20260506211725 | 56 | 250 | 0.0 | 3.0 | 0.00 | 0.09 | 0.03 | 93 | 1004.5 |
| 20260506211225 | 56 | 246 | 0.0 | 0.0 | 0.00 | 0.12 | 0.03 | 93 | 1004.2 |
| 20260506210725 | 56 | 245 | 0.0 | 0.0 | 0.00 | 0.13 | 0.03 | 93 | 1004.1 |
| 20260506210444 | 56 | 246 | 0.0 | 1.0 | 0.00 | 0.14 | 0.03 | 93 | 1003.9 |
| 20260506205721 | 56 | 246 | 0.0 | 2.0 | 0.00 | 0.16 | 0.03 | 92 | 1003.9 |
| 20260506205437 | 56 | 246 | 1.0 | 2.0 | 0.00 | 0.17 | 0.03 | 92 | 1003.9 |
| 20260506204721 | 56 | 246 | 0.0 | 2.0 | 0.00 | 0.20 | 0.03 | 92 | 1003.8 |
| 20260506204220 | 56 | 246 | 0.0 | 2.0 | 0.00 | 0.22 | 0.03 | 92 | 1003.9 |
| 20260506203941 | 56 | 245 | 0.0 | 1.0 | 0.00 | 0.24 | 0.03 | 92 | 1003.9 |
| 20260506203441 | 56 | 245 | 0.0 | 3.0 | 0.00 | 0.26 | 0.03 | 92 | 1003.8 |
| 20260506202721 | 56 | 246 | 0.0 | 3.0 | 0.00 | 0.28 | 0.03 | 92 | 1003.9 |
| 20260506202220 | 56 | 255 | 0.0 | 2.0 | 0.00 | 0.30 | 0.03 | 92 | 1003.8 |
| 20260506201721 | 56 | 257 | 0.0 | 0.0 | 0.00 | 0.31 | 0.03 | 92 | 1003.7 |
| 20260506201437 | 56 | 258 | 0.0 | 0.0 | 0.00 | 0.31 | 0.03 | 92 | 1003.5 |
| 20260506200716 | 56 | 257 | 0.0 | 0.0 | 0.00 | 0.31 | 0.03 | 92 | 1003.3 |
| 20260506200444 | 56 | 257 | 0.0 | 0.0 | 0.00 | 0.31 | 0.03 | 92 | 1003.3 |
| 20260506195715 | 57 | 257 | 0.0 | 1.0 | 0.00 | 0.31 | 0.03 | 91 | 1003.3 |
| 20260506194715 | 57 | 257 | 1.0 | 4.0 | 0.00 | 0.31 | 0.03 | 91 | 1003.5 |
| 20260506194432 | 57 | 259 | 1.0 | 4.0 | 0.00 | 0.31 | 0.03 | 91 | 1003.5 |
| 20260506193713 | 57 | 292 | 0.0 | 2.0 | 0.00 | 0.31 | 0.03 | 91 | 1003.5 |
| 20260506193434 | 57 | 292 | 0.0 | 3.0 | 0.00 | 0.31 | 0.03 | 90 | 1003.4 |
| 20260506192710 | 57 | 292 | 1.0 | 4.0 | 0.00 | 0.31 | 0.03 | 90 | 1003.4 |
| 20260506192208 | 57 | 292 | 1.0 | 4.0 | 0.00 | 0.31 | 0.03 | 90 | 1003.5 |
| 20260506191707 | 57 | 13 | 0.0 | 2.0 | 0.01 | 0.31 | 0.03 | 89 | 1003.3 |
| 20260506191207 | 57 | 13 | 1.0 | 3.0 | 0.01 | 0.31 | 0.03 | 89 | 1003.2 |
| 20260506190705 | 58 | 13 | 1.0 | 3.0 | 0.02 | 0.31 | 0.03 | 88 | 1003.1 |
| 20260506190203 | 58 | 13 | 0.0 | 2.0 | 0.02 | 0.31 | 0.03 | 87 | 1003.0 |
| 20260506185703 | 58 | 13 | 1.0 | 4.0 | 0.02 | 0.31 | 0.03 | 87 | 1003.0 |
| 20260506185203 | 58 | 13 | 2.0 | 4.0 | 0.02 | 0.31 | 0.03 | 86 | 1003.0 |
| 20260506184702 | 58 | 13 | 1.0 | 4.0 | 0.02 | 0.31 | 0.03 | 85 | 1002.9 |
| 20260506184204 | 59 | 13 | 0.0 | 3.0 | 0.02 | 0.31 | 0.03 | 85 | 1002.8 |
| 20260506183924 | 59 | 13 | 1.0 | 5.0 | 0.02 | 0.31 | 0.03 | 85 | 1002.6 |
| 20260506183203 | 59 | 13 | 2.0 | 5.0 | 0.02 | 0.31 | 0.03 | 84 | 1002.5 |
| 20260506182933 | 60 | 161 | 1.0 | 5.0 | 0.02 | 0.31 | 0.03 | 84 | 1002.5 |
| 20260506182203 | 60 | 167 | 1.0 | 5.0 | 0.02 | 0.31 | 0.03 | 83 | 1002.8 |
| 20260506181703 | 60 | 167 | 2.0 | 5.0 | 0.02 | 0.31 | 0.02 | 83 | 1003.0 |
| 20260506181426 | 61 | 167 | 2.0 | 4.0 | 0.02 | 0.31 | 0.02 | 82 | 1002.9 |
| 20260506180704 | 61 | 111 | 1.0 | 3.0 | 0.00 | 0.29 | 0.01 | 79 | 1002.8 |
| 20260506180203 | 61 | 113 | 0.0 | 3.0 | 0.00 | 0.29 | 0.01 | 79 | 1002.9 |
| 20260506175710 | 61 | 108 | 0.0 | 0.0 | 0.00 | 0.29 | 0.01 | 79 | 1002.8 |
| 20260506175203 | 61 | 108 | 0.0 | 0.0 | 0.00 | 0.29 | 0.01 | 78 | 1002.5 |
| 20260506174704 | 62 | 108 | 0.0 | 0.0 | 0.00 | 0.29 | 0.01 | 79 | 1002.4 |
| 20260506174203 | 62 | 108 | 0.0 | 2.0 | 0.00 | 0.29 | 0.01 | 78 | 1002.4 |
| 20260506173704 | 62 | 108 | 1.0 | 3.0 | 0.00 | 0.29 | 0.01 | 78 | 1002.4 |
| 20260506173426 | 63 | 108 | 2.0 | 3.0 | 0.00 | 0.29 | 0.01 | 79 | 1002.3 |
| 20260506172701 | 63 | 108 | 2.0 | 4.0 | 0.00 | 0.29 | 0.01 | 77 | 1002.3 |
| 20260506172434 | 63 | 108 | 1.0 | 4.0 | 0.00 | 0.29 | 0.01 | 75 | 1002.2 |
| 20260506171701 | 64 | 107 | 0.0 | 2.0 | 0.00 | 0.29 | 0.01 | 71 | 1002.1 |
| 20260506171201 | 64 | 107 | 0.0 | 2.0 | 0.00 | 0.29 | 0.01 | 70 | 1002.1 |
| 20260506170701 | 64 | 107 | 1.0 | 3.0 | 0.00 | 0.29 | 0.01 | 71 | 1002.0 |
| 20260506170201 | 65 | 109 | 1.0 | 3.0 | 0.00 | 0.29 | 0.01 | 72 | 1001.9 |
| 20260506165701 | 65 | 108 | 0.0 | 2.0 | 0.00 | 0.29 | 0.01 | 73 | 1002.0 |
| 20260506165202 | 65 | 109 | 0.0 | 0.0 | 0.00 | 0.29 | 0.01 | 71 | 1002.3 |
| 20260506164701 | 65 | 109 | 0.0 | 0.0 | 0.00 | 0.29 | 0.01 | 71 | 1002.4 |
| 20260506164424 | 65 | 109 | 0.0 | 1.0 | 0.00 | 0.29 | 0.01 | 70 | 1002.3 |
| 20260506163702 | 65 | 109 | 0.0 | 3.0 | 0.00 | 0.29 | 0.01 | 69 | 1002.2 |
| 20260506163201 | 66 | 109 | 1.0 | 3.0 | 0.00 | 0.29 | 0.01 | 69 | 1002.3 |
| 20260506162702 | 66 | 109 | 1.0 | 4.0 | 0.00 | 0.29 | 0.01 | 68 | 1002.3 |
| 20260506162201 | 66 | 109 | 1.0 | 4.0 | 0.00 | 0.29 | 0.01 | 67 | 1002.3 |
| 20260506161701 | 66 | 109 | 1.0 | 4.0 | 0.00 | 0.29 | 0.01 | 66 | 1002.4 |
| 20260506161158 | 66 | 109 | 2.0 | 7.0 | 0.00 | 0.29 | 0.01 | 65 | 1002.4 |